User: anonymous   Login
Location: Oshawa
(43.9000°N, 78.8670°W)
Time: 01:44:42
(UTC-04:00)
Language:

Explorer 11/Cluster Stage 4 - Orbit

View from above orbital plane
View from above orbital plane
View from above satellite
View from above satellite

Ground track
Ground track

The orbit data is extracted from the following two-line orbital elements,

1 00107U 61013A   16208.65030443  .00000352  00000-0  29990-4 0  9994
2 00107  28.7870 286.2975 0550995  61.5041 303.9897 14.07928309765146
Epoch (UTC): 26 July 2016 15:36:26
Eccentricity: 0.0550995
inclination: 28.7870°
perigee height: 467 km
apogee height: 1265 km
right ascension of ascending node: 286.2975°
argument of perigee: 61.5041°
revolutions per day: 14.07928309
mean anomaly at epoch: 303.9897°
orbit number at epoch: 76514

The dashed part of the orbit path shows where the satellite is in the earth's shadow,  

DLR